Location: Newark
(40.9833°N, 0.0333°W)
Time: 00:46:47
(UTC+00:00)

deb Explorer IX - Pass Details

Date: 30 October 2020
Orbit: 537 x 1105 km, 38.8° (Epoch: 02 December)

Event Time Altitude Azimuth Distance (km) Brightness Sun altitude
Rises 11:31:33 0° 271° (W) 3,863 ? 34.9°
Reaches altitude 10° 11:36:17 10° 244° (WSW) 2,949 ? 35.0°
Maximum altitude 11:38:57 12° 222° (SW) 2,785 ? 35.0°
Drops below altitude 10° 11:41:37 10° 201° (SSW) 2,947 ? 35.0°
Sets 11:46:23 0° 173° (S) 3,857 ? 35.0°
